Temperature
9 9 9 8 8 8 8 7 7 6 6 6 6 6 5 5 4 4 3 3 2 2 1 1 1 0 0 -0 -0 -1 -1 -1 -2 -2 -2 -2 -2 -2
9 9 8 8 8 8 7 7 7 6 6 6 6 5 5 4 4 3 3 2 2 1 1 0 0 -0 -1 -1 -1 -2 -2 -2 -2 -3 -3 -3 -3 -3
9 8 8 8 8 7 7 7 6 6 6 5 5 5 4 3 3 2 2 1 1 1 0 -0 -1 -1 -1 -2 -2 -2 -3 -3 -3 -3 -4 -4 -4 -4
8 8 8 8 7 7 7 7 6 6 5 5 5 4 4 3 2 2 1 1 0 -0 -1 -1 -1 -2 -2 -2 -3 -3 -3 -4 -4 -4 -4 -4 -4 -4
8 8 8 7 7 7 7 6 6 5 5 4 4 3 3 2 2 1 1 0 -0 -1 -1 -2 -2 -2 -3 -3 -3 -4 -4 -4 -4 -5 -5 -5 -5 -5
8 8 8 7 7 7 6 6 5 5 4 4 3 3 2 1 1 0 0 -0 -1 -1 -2 -2 -3 -3 -3 -4 -4 -4 -5 -5 -5 -5 -5 -6 -6 -6
8 7 7 7 7 6 6 5 5 4 4 3 3 2 1 1 0 -0 -1 -1 -1 -2 -2 -3 -3 -3 -4 -4 -5 -5 -5 -5 -6 -6 -6 -6 -6 -6
7 7 7 7 6 6 5 5 4 4 3 2 2 1 1 -0 -1 -1 -2 -2 -2 -3 -3 -3 -4 -4 -4 -5 -5 -6 -6 -6 -6 -6 -6 -7 -7 -7
7 7 7 6 6 5 5 4 4 3 2 2 1 1 0 -1 -1 -2 -2 -3 -3 -3 -4 -4 -4 -4 -5 -5 -5 -6 -6 -6 -7 -7 -7 -7 -7 -7
7 6 6 6 5 5 4 4 3 2 2 1 1 0 -1 -1 -2 -2 -3 -3 -3 -3 -4 -5 -5 -5 -5 -5 -6 -6 -7 -7 -7 -7 -7 -7 -7 -7
6 6 6 5 5 4 4 3 3 2 1 1 0 -0 -1 -2 -2 -3 -3 -4 -4 -4 -5 -6 -6 -6 -6 -6 -6 -7 -7 -7 -7 -8 -8 -8 -8 -8
6 5 5 5 4 3 3 2 2 1 1 0 -0 -1 -1 -2 -3 -3 -4 -5 -5 -6 -6 -7 -7 -7 -8 -7 -7 -7 -7 -7 -7 -8 -8 -8 -8 -8
5 5 5 4 3 3 2 2 1 1 0 -0 -1 -1 -2 -3 -3 -4 -4 -5 -6 -6 -7 -7 -8 -8 -9 -9 -7 -7 -7 -8 -8 -8 -8 -8 -8 -8
5 5 4 3 3 2 2 1 1 0 -0 -1 -1 -2 -3 -3 -4 -4 -5 -6 -6 -7 -7 -8 -8 -8 -9 -9 -9 -8 -8 -8 -8 -8 -8 -8 -8 -8
4 4 3 3 2 2 1 1 0 -0 -1 -2 -2 -3 -3 -4 -4 -5 -5 -6 -6 -7 -7 -8 -8 -9 -9 -9 -9 -8 -8 -8 -8 -8 -8 -8 -8 -8
4 3 3 2 2 1 1 0 -1 -1 -2 -2 -3 -4 -4 -4 -5 -5 -6 -7 -7 -7 -7 -8 -8 -9 -9 -9 -9 -9 -9 -9 -9 -9 -8 -8 -8 -8
3 2 2 1 1 1 0 -1 -1 -2 -2 -3 -4 -4 -5 -5 -6 -6 -7 -7 -8 -8 -8 -8 -8 -9 -9 -9 -8 -8 -9 -9 -9 -9 -9 -8 -7 -8
2 2 1 1 0 -0 -1 -1 -2 -2 -3 -4 -4 -5 -5 -6 -6 -7 -7 -8 -8 -8 -9 -9 -9 -8 -8 -8 -8 -9 -9 -9 -9 -9 -9 -9 -7 -7
2 2 1 0 -0 -1 -1 -2 -2 -3 -4 -4 -5 -5 -6 -6 -7 -7 -8 -8 -8 -9 -9 -9 -10 -10 -10 -10 -8 -9 -9 -10 -9 -9 -9 -9 -8 -7
1 1 0 -0 -1 -1 -2 -2 -3 -3 -4 -5 -5 -6 -6 -7 -7 -8 -8 -9 -9 -9 -9 -9 -10 -10 -11 -11 -10 -8 -9 -10 -10 -9 -9 -8 -8 -7
1 0 -0 -1 -1 -2 -2 -3 -3 -4 -4 -5 -5 -6 -7 -7 -8 -8 -9 -9 -9 -9 -9 -9 -10 -10 -10 -10 -10 -9 -8 -9 -9 -10 -9 -9 -8 -7
0 -0 -1 -1 -2 -2 -3 -3 -4 -4 -5 -5 -6 -6 -7 -7 -8 -8 -9 -9 -9 -10 -10 -9 -9 -9 -10 -10 -10 -9 -8 -8 -8 -8 -9 -9 -9 -9
-0 -1 -1 -2 -2 -3 -3 -4 -4 -5 -5 -6 -6 -7 -7 -8 -8 -9 -9 -9 -10 -10 -10 -10 -9 -9 -10 -10 -10 -9 -9 -8 -8 -7 -7 -8 -8 -8
Wind_Speed
8 8 5 4 4 4 3 4 4 3 4 4 2 3 5 6 7 7 8 11 14 16 17 18 19 20 20 21 22 22 23 23 23 24 24 25 25 24
6 7 6 4 4 4 3 3 3 4 4 3 2 2 2 4 6 7 8 12 14 16 18 19 19 19 20 21 22 22 23 23 23 23 24 24 24 24
8 9 8 6 5 4 3 3 3 3 4 4 2 1 1 2 4 7 9 9 11 15 17 18 19 19 20 21 22 23 23 23 23 23 23 24 24 24
9 9 8 6 6 5 4 4 4 4 4 4 3 1 2 3 3 4 6 9 10 14 17 18 18 19 20 21 22 22 22 22 22 23 23 23 23 23
10 10 9 8 7 5 5 5 4 3 2 2 3 2 2 2 3 4 5 5 9 13 15 16 17 19 20 21 21 21 21 21 21 21 21 22 21 22
9 9 9 9 9 7 6 5 3 3 2 2 3 3 3 3 2 3 5 4 6 9 12 13 16 18 19 21 21 20 20 20 20 20 21 21 21 22
7 7 7 8 9 7 6 5 5 3 2 2 3 2 3 3 3 3 5 5 5 4 4 7 9 9 13 17 19 19 19 20 20 20 20 21 21 21
8 7 7 8 8 8 8 7 6 5 4 3 3 3 4 3 3 3 4 4 5 3 4 6 5 6 8 12 16 19 19 19 20 21 21 21 21 21
8 7 5 5 7 5 5 5 5 5 5 3 3 4 3 3 3 3 3 4 5 5 5 6 5 6 8 14 19 19 19 20 21 21 21 21 21 21
7 7 7 6 5 5 4 3 3 3 3 3 3 4 3 2 2 2 3 4 5 5 3 5 5 5 8 11 16 18 19 21 22 22 21 21 20 20
6 6 7 6 7 7 5 4 3 2 3 4 4 4 5 6 5 2 3 4 6 5 2 3 4 7 6 5 10 16 20 22 23 22 22 22 21 19
5 5 7 7 8 8 6 5 4 3 2 1 2 3 3 4 5 1 1 3 4 4 2 3 4 5 5 4 5 11 15 19 22 22 22 22 21 14
6 4 4 7 7 7 5 4 4 2 1 1 0 1 1 1 2 2 1 2 3 4 4 3 4 4 4 6 6 6 7 9 13 15 18 21 21 17
6 5 5 8 7 6 4 3 2 2 2 1 0 1 2 2 2 2 4 5 5 6 7 5 4 4 5 8 7 6 7 9 9 7 9 18 18 20
5 8 7 8 6 4 4 3 3 2 2 1 1 2 2 2 1 2 3 4 6 8 8 8 5 5 5 7 8 8 9 8 6 6 8 9 8 9
6 8 8 7 5 4 3 3 2 2 1 1 1 1 1 1 2 2 2 3 4 5 6 9 8 5 6 8 8 10 8 6 8 9 9 8 8 9
7 5 3 3 3 2 2 2 2 2 1 1 0 1 2 2 2 2 2 3 3 4 5 4 7 8 7 8 8 8 8 8 8 9 10 10 8 7
8 5 4 4 3 3 3 2 1 1 1 0 0 1 1 2 2 3 3 3 4 4 4 4 5 6 5 5 7 6 6 7 8 8 8 10 11 8
5 5 4 4 3 3 3 2 2 1 1 1 1 1 1 2 2 3 3 4 4 4 5 4 4 5 7 8 6 5 6 9 9 9 8 8 10 12
4 4 4 4 3 3 3 2 1 1 1 1 1 1 1 2 2 3 3 4 4 5 5 4 4 4 6 7 7 8 12 9 9 10 10 9 8 12
4 4 4 4 3 3 3 2 2 1 1 1 1 1 1 2 2 3 4 7 5 4 5 5 6 9 5 4 7 7 7 13 14 10 10 9 9 6
5 4 4 4 3 3 3 2 2 1 1 1 1 1 2 2 3 3 3 4 4 4 5 5 5 5 3 5 8 10 10 11 14 17 14 10 7 5
5 4 4 3 3 3 3 2 2 1 1 1 1 1 2 2 2 3 3 3 4 4 5 5 5 4 4 5 7 8 11 11 10 10 9 14 16 15
Wind_Direction
184 181 180 184 180 178 169 162 169 218 250 244 230 225 217 229 248 253 262 283 293 297 300 303 306 308 309 310 311 311 311 310 310 310 310 310 309 307
178 180 182 175 172 174 178 178 173 186 233 243 233 242 224 252 267 275 280 292 296 299 301 303 305 306 309 310 310 310 311 311 312 312 311 311 310 310
179 182 184 171 171 179 177 182 191 184 227 264 258 273 262 268 284 280 285 289 295 301 303 304 305 307 308 309 310 311 311 312 313 313 313 313 313 312
182 179 181 173 176 180 181 193 202 199 205 250 275 277 266 268 274 281 290 293 294 300 304 307 308 310 312 312 313 313 314 314 314 313 313 314 314 313
180 180 180 174 182 182 185 194 203 206 198 226 268 282 285 290 295 296 297 293 298 302 304 308 311 314 315 315 316 317 318 317 316 315 315 315 316 316
177 179 179 180 185 183 188 193 188 193 204 230 264 282 287 297 304 295 301 294 299 299 301 308 312 315 315 316 317 318 319 319 318 318 319 318 319 318
173 176 178 179 182 182 187 188 182 189 202 230 257 281 286 303 290 284 294 300 297 289 310 310 309 306 309 313 316 317 319 321 322 322 321 321 320 319
172 171 173 175 183 189 194 191 187 191 203 210 235 255 268 276 284 297 301 316 309 305 317 305 305 301 302 305 313 319 322 322 323 322 321 320 319 318
169 169 168 172 173 177 189 194 208 218 210 206 226 244 257 261 276 290 292 293 286 295 315 298 299 300 303 312 317 320 323 325 325 323 321 320 319 318
167 168 166 167 176 173 170 176 195 211 221 215 221 239 255 262 258 278 292 303 295 296 302 292 302 304 310 309 314 322 327 328 326 325 324 323 321 321
153 154 160 168 179 172 163 173 194 236 254 254 263 278 297 308 320 351 336 327 312 306 292 288 307 317 304 295 313 328 330 327 325 326 326 325 324 324
145 151 160 166 173 171 170 177 199 217 203 243 283 297 310 315 322 317 270 302 309 304 319 329 311 331 316 296 313 321 321 322 325 327 327 326 325 324
157 159 167 169 173 180 178 184 204 178 155 178 259 311 329 326 319 309 280 268 285 281 295 322 305 311 294 305 306 302 310 318 321 320 323 326 326 327
159 159 163 166 171 176 178 176 157 127 119 114 315 294 295 292 294 300 294 288 278 275 285 294 286 294 302 305 303 307 315 312 309 307 314 324 326 325
142 144 147 153 157 162 161 151 133 122 128 152 252 272 276 283 312 320 312 308 300 297 298 297 286 290 289 296 299 305 314 311 306 317 318 316 312 315
122 131 134 135 129 132 136 141 128 141 143 183 256 287 311 342 334 324 318 317 310 304 300 301 296 289 291 288 290 296 301 300 313 317 317 311 307 307
129 115 112 124 124 122 124 123 117 111 103 91 35 333 332 334 327 328 323 317 306 308 314 311 307 295 277 281 288 289 295 301 305 314 319 317 310 304
130 137 144 147 152 157 155 148 142 153 154 148 272 303 312 313 315 322 321 310 303 305 308 310 323 326 322 296 265 283 296 305 310 312 313 314 312 310
129 143 150 155 155 155 156 162 176 175 150 157 252 282 303 311 317 317 315 310 305 303 305 309 322 330 327 325 302 297 313 315 314 312 308 306 304 306
137 147 151 154 153 155 161 166 167 159 164 205 245 269 283 300 311 309 306 305 308 309 310 314 314 314 310 306 298 300 308 308 311 312 311 306 294 295
145 145 148 149 150 153 159 163 165 174 184 200 244 271 277 293 302 301 303 311 316 311 312 310 302 316 307 301 304 305 304 313 315 311 311 311 313 308
145 147 147 149 151 155 158 158 161 178 192 207 242 265 275 285 292 295 300 307 305 302 302 303 308 318 320 312 310 310 313 318 321 322 316 308 310 311
147 146 147 150 153 154 155 161 171 195 205 214 235 262 278 289 291 293 300 302 306 310 315 316 319 319 311 306 307 310 313 320 324 326 320 324 323 310
Height
1510 1512 1514 1515 1516 1517 1518 1518 1518 1516 1514 1514 1514 1513 1512 1510 1508 1506 1503 1501 1498 1495 1492 1488 1485 1481 1477 1473 1470 1466 1462 1458 1455 1451 1448 1445 1441 1438
1506 1508 1509 1510 1512 1513 1513 1514 1513 1513 1510 1509 1509 1509 1507 1505 1503 1501 1498 1496 1492 1489 1486 1483 1479 1476 1472 1468 1464 1460 1456 1452 1449 1445 1442 1438 1435 1432
1500 1502 1504 1506 1507 1508 1508 1509 1509 1508 1506 1505 1505 1503 1502 1500 1498 1496 1493 1490 1487 1484 1480 1477 1474 1470 1466 1462 1458 1454 1451 1447 1443 1439 1435 1432 1429 1426
1495 1497 1499 1501 1502 1503 1503 1503 1504 1503 1502 1500 1499 1498 1497 1495 1492 1490 1488 1485 1481 1478 1475 1472 1468 1465 1461 1457 1453 1449 1445 1441 1437 1433 1430 1426 1423 1420
1490 1492 1494 1495 1496 1498 1498 1498 1498 1498 1497 1495 1494 1493 1491 1490 1487 1484 1482 1479 1476 1473 1469 1466 1463 1459 1455 1451 1447 1443 1439 1435 1431 1428 1424 1421 1417 1414
1485 1487 1489 1490 1492 1493 1493 1493 1493 1493 1492 1490 1489 1487 1486 1484 1482 1479 1475 1473 1470 1467 1464 1461 1457 1453 1450 1446 1442 1438 1434 1430 1426 1423 1419 1416 1412 1409
1480 1482 1484 1486 1487 1488 1488 1488 1488 1488 1487 1485 1484 1482 1481 1479 1477 1474 1470 1467 1464 1461 1458 1455 1452 1448 1444 1440 1436 1433 1429 1425 1422 1418 1414 1411 1408 1404
1475 1478 1479 1481 1482 1483 1484 1484 1484 1483 1482 1481 1479 1478 1476 1475 1472 1470 1467 1462 1458 1457 1453 1449 1447 1442 1439 1435 1432 1428 1425 1421 1417 1414 1410 1406 1403 1400
1471 1473 1475 1476 1477 1478 1479 1479 1479 1478 1478 1477 1475 1474 1472 1471 1468 1466 1463 1459 1456 1452 1448 1443 1441 1437 1434 1431 1427 1424 1420 1417 1413 1409 1405 1402 1398 1395
1467 1468 1470 1472 1473 1473 1474 1474 1474 1473 1473 1472 1471 1470 1469 1467 1465 1462 1459 1455 1452 1449 1445 1440 1435 1432 1429 1426 1423 1420 1416 1412 1408 1405 1401 1397 1394 1391
1462 1464 1466 1467 1468 1469 1469 1469 1469 1469 1469 1468 1467 1466 1465 1463 1461 1458 1455 1451 1447 1444 1441 1437 1432 1427 1423 1421 1418 1415 1411 1408 1404 1400 1397 1393 1390 1386
1458 1460 1462 1463 1464 1464 1464 1465 1464 1464 1464 1463 1463 1462 1460 1459 1457 1455 1452 1448 1444 1440 1437 1434 1430 1425 1419 1415 1414 1411 1407 1403 1400 1396 1392 1389 1386 1382
1454 1456 1457 1459 1460 1460 1460 1461 1461 1461 1460 1459 1458 1457 1456 1455 1453 1451 1448 1446 1442 1439 1436 1432 1428 1424 1421 1414 1409 1407 1403 1399 1395 1392 1388 1385 1382 1379
1450 1452 1453 1455 1456 1456 1457 1457 1457 1457 1456 1455 1454 1453 1452 1450 1449 1447 1444 1442 1439 1436 1433 1430 1426 1422 1417 1412 1407 1402 1400 1396 1392 1388 1385 1381 1378 1375
1447 1448 1450 1451 1452 1453 1453 1453 1453 1453 1452 1451 1450 1449 1448 1447 1445 1442 1440 1437 1435 1433 1430 1427 1423 1420 1416 1411 1405 1400 1396 1392 1389 1386 1381 1378 1374 1371
1443 1445 1447 1448 1449 1449 1450 1450 1449 1449 1449 1448 1447 1446 1445 1443 1441 1438 1436 1433 1430 1428 1426 1423 1420 1416 1412 1408 1404 1399 1395 1391 1387 1383 1378 1374 1371 1368
1440 1442 1443 1444 1445 1446 1446 1446 1446 1446 1445 1445 1444 1442 1441 1439 1437 1435 1433 1430 1427 1424 1421 1419 1416 1413 1409 1405 1400 1397 1393 1389 1385 1380 1375 1371 1368 1365
1437 1438 1439 1441 1441 1442 1442 1442 1442 1442 1442 1441 1440 1439 1437 1436 1434 1432 1430 1427 1425 1422 1419 1416 1412 1408 1405 1402 1400 1395 1391 1386 1382 1378 1374 1369 1364 1362
1434 1435 1436 1437 1438 1439 1439 1439 1439 1439 1438 1438 1437 1436 1434 1433 1431 1429 1427 1425 1422 1420 1417 1415 1411 1407 1403 1399 1396 1394 1389 1384 1379 1375 1371 1367 1362 1359
1431 1432 1433 1434 1435 1436 1436 1436 1436 1435 1435 1434 1434 1432 1431 1430 1428 1427 1425 1423 1420 1418 1415 1413 1410 1407 1404 1401 1395 1391 1389 1383 1377 1372 1368 1364 1360 1357
1427 1429 1430 1431 1432 1432 1433 1433 1432 1432 1432 1431 1430 1429 1428 1427 1426 1424 1422 1421 1418 1416 1413 1411 1409 1406 1403 1399 1394 1389 1385 1382 1377 1372 1366 1361 1357 1353
1424 1426 1427 1428 1429 1429 1429 1429 1429 1429 1429 1428 1427 1426 1426 1425 1423 1422 1420 1418 1416 1414 1412 1410 1407 1404 1400 1397 1392 1387 1383 1379 1376 1372 1367 1363 1359 1354
1422 1423 1424 1425 1426 1426 1426 1426 1426 1426 1425 1425 1424 1423 1423 1422 1421 1419 1418 1416 1414 1412 1410 1407 1405 1402 1399 1396 1391 1387 1382 1378 1373 1369 1366 1362 1359 1355